Location: Newark
(47.3150°N, 5.1150°E)
Time: 12:40:31
(UTC+00:00)

O/OREOS (USA 219) - Pass Details

Date: 23 December 2019
Orbit: 621 x 646 km, 72.0° (Epoch: 22 May)

Event Time Altitude Azimuth Distance (km) Brightness Sun altitude
Rises 18:02:08 0° 177° (S) 2,939 ? -20.9°
Reaches altitude 10° 18:04:35 10° 167° (SSE) 2,037 ? -21.3°
Enters shadow 18:06:27 21° 150° (SSE) 1,450 ? -21.6°
